Showing default

S80/T, 22078

Orbit data source: Space-Track

S80/T, 22078 is a payload satellite owned by CNES (FR) in LEO that was launched on Mon, 10 Aug 1992 UTC via an ARIANE 42P launch vehicle from the French Guiana (FRGUI). Payload-class satellites include a variety of spacecraft equipped with specific instruments for various scientific and technological missions. These include communications satellites like Starlink; space stations such as the ISS; scientific satellites like the Hubble; Earth observation satellites from companies like Planet Labs, Umbra, and HawkEye 360; GPS; miniature CubeSats for education and research; and military/defense satellites.

Loading next visibility...
Identifier
22078, 1992-052C
Orbit
LEO
Last TLE update
7 hours ago
Origin
Manufacturer
SSTL/MMST
Mission
Civil Communications
Bus & Motor
UOSAT, Unknown motor
Mass
50 kg wet, 50 kg dry
Launch date (UTC)
1992-08-10 (33 years ago)
Launch vehicle
ARIANE 42P
Launch site
French Guiana (FRGUI)
Object type
Payload
Rocket body
Debris
Shape & HBR
Hex Poly, 0.7 m
Radar Cross Section
0.140 m², Medium (>0.1 m² and < 1m²)

Expand to show TLE details & history

TLE from 7 hours ago
0 S80/T
1 22078U 92052C   25183.60414321 -.00000044  00000-0  70574-4 0  9993
2 22078  66.0856 281.1260 0001470  99.5705 260.5480 12.86842778545258
Epoch: 2025-07-02T14:29Z
TLE epoch observation values (Epoch: 2025-07-02T14:29:57.973Z)
Latitude
Longitude
142.75158°
Altitude
1,316.185 km
Speed
7.199 km/s
True Right ascension
18h 44m 30s
True Declination
0° 00' 00"
Sunlit
Object was in full shadow at epoch
Visualization orbit readout
Latitude
-19.02598°
Longitude
-29.07606°
Altitude
1,320.603 km
Speed
7.196 km/s
Apparent Right ascension
04h 56m 22s
Apparent Declination
-62° 28' 28"
Sunlit
Object is in daylight
Visualization observer readout
Local Sidereal Time
08:52:11
Azimuth
205.421° SW
Elevation
-22.721°
Doppler factor
1
Orbital elements
Apogee altitude
1,313.764 km
Perigee altitude
1,311.503 km
Semi-major axis
7,690.77 km
Eccentricity
0.00015
Inclination
66.0856°
RAAN
281.126°
Arg. of periapsis
99.5705°
True anomaly
Unknown
Mean anomaly
260.548°
Eccentric anomaly
Unknown
Mean motion
3.21802 °/min
Orbital period
111.87 mins
BSTAR
0.000070574
Loading maneuver chart data...
Loading SW <> Apogee altitude chart data...
Loading historical data...
Loading historical data...
Loading historical data...
Loading historical data...
Loading historical data...
Loading historical data...
Loading historical data...

S80/T Visibility forecast

Observer location: undefined°, undefined°

Span
Click to sort rows by Start time (UTC) header in descending order
Start Az.
Max El. time (UTC)
Max El. Az.
Max El.
End time (UTC)
End Az.
14 mins2025-07-03 07:23:03.054Z179.183° S2025-07-03 07:30:03.054Z104.665° ESE36.274°2025-07-03 07:37:03.054Z41.377° NE
13 mins2025-07-03 09:19:03.054Z246.662° WSW2025-07-03 09:25:03.054Z308.1° NW33.474°2025-07-03 09:32:03.054Z17.58° NNE
5 mins2025-07-03 11:21:03.054Z320.434° NNW2025-07-03 11:23:03.054Z336.023° NNW12.778°2025-07-03 11:26:03.054Z359.033° N
10 mins2025-07-03 15:18:03.054Z359.552° N2025-07-03 15:22:03.054Z36.433° NE21.922°2025-07-03 15:28:03.054Z87.572° E
14 mins2025-07-03 17:12:03.054Z330.426° NNW2025-07-03 17:19:03.054Z131.334° SE44.855°2025-07-03 17:26:03.054Z151.042° SSE
7 mins2025-07-03 19:10:03.054Z284.284° WNW2025-07-03 19:13:03.054Z258.528° W17.201°2025-07-03 19:17:03.054Z225.643° WSW
|